Location: Marstown
(39.5056°N, 77.0820°W)
Time: 22:14:23
(UTC-04:00)

N. Korean satellite - Visible Passes

Search period start: 19 September 2018 00:00
Search period end: 29 September 2018 00:00
Orbit: 458 x 511 km, 97.2° (Epoch: 19 September)

Date Brightness Start Highest point End Pass type
(mag) Time Alt. Az. Time Alt. Az. Time Alt. Az.
19 Sep 9.9 19:46:53 10° SW 19:48:48 14° W 19:50:44 10° WNW visible
22 Sep 10.5 06:26:02 10° ENE 06:27:21 11° E 06:28:38 10° ESE visible
23 Sep 9.9 19:42:39 10° SW 19:44:52 16° W 19:47:06 10° NW visible
26 Sep 10.8 06:22:48 10° E 06:23:24 10° E 06:24:02 10° E visible
27 Sep 9.8 19:38:25 10° SW 19:40:53 18° W 19:43:24 10° NW visible
